Main page
Satellite images Climate Cyclones Lightning AirportsFAQ Languages Contact Newsletter About
Weather : Europe Africa North America South America Asia Australia-Oceania Others

, Trang, Trang Airport

48567

latitude: , longitude: Thailand, elevation: 07-31N m


METAR: VTST 200700Z 31004KT 9999 FEW023 36/23 Q1004 NOSIG